Regional Weather Roundup
Issued by NWS Sioux Falls, SD

Home | Current Version | Previous Version | Graphics & Text | Print | Product List | Glossary Off
Versions: 1 2 3 4 5 6 7 8 9 10 11 12 13 14 15 16 17 18 19 20 21 22 23 24 25 26 27 28 29 30 31 32 33 34 35 36 37 38 39 40 41 42 43 44 45 46 47 48 49 50

305
ASUS43 KFSD 251410
RWRFSD

WEATHER ROUNDUP FOR SE SOUTH DAKOTA/SW MINNESOTA/NW IOWA
NATIONAL WEATHER SERVICE SIOUX FALLS SD
900 AM CDT WED APR 25 2018

NOTE: "FAIR" INDICATES FEW OR NO CLOUDS BELOW 12,000 FEET WITH NO
SIGNIFICANT WEATHER AND OR OBSTRUCTIONS TO VISIBILITY.


SDZ038>040-050-052>070-251500-
SOUTHEAST SOUTH DAKOTA

CITY           SKY/WX    TMP DP  RH WIND       PRES   REMARKS
BROOKINGS      SUNNY     37  32  82 NW3       30.28S
CHAMBERLAIN    SUNNY     39  38  96 W7        30.30F
HURON          SUNNY     42  34  73 CALM      30.30S
MADISON        FAIR      39  36  87 CALM      30.28S
MITCHELL       SUNNY     40  33  76 CALM      30.31F
SIOUX FALLS    MOSUNNY   42  29  59 NE6       30.29S
WINNER         FAIR      41  32  70 SW7       30.30F
YANKTON        SUNNY     41  34  76 NW10      30.30F
$$

MNZ071-072-080-081-089-090-097-098-251500-
SOUTHWEST MINNESOTA

CITY           SKY/WX    TMP DP  RH WIND       PRES   REMARKS
FAIRMONT       SUNNY     38  31  76 N9        30.27R
JACKSON        SUNNY     37  32  81 N5        30.26F
LUVERNE        SUNNY     41  28  60 NE5       30.28F
MARSHALL       SUNNY     38  31  76 NW5       30.29S
MONTEVIDEO     SUNNY     45  36  70 CALM      30.28F
PIPESTONE      SUNNY    N/A N/A N/A E5        30.26S
REDWOOD FALLS  SUNNY     40  29  64 NE3       30.27F
TRACY          SUNNY     38  32  78 NW6       30.28S
WINDOM         SUNNY     39  21  48 NW6       30.27S
WORTHINGTON    SUNNY     38  30  73 N9        30.27S
$$

IAZ001>003-012>014-020>022-031-032-NEZ013-014-SDZ071-251500-
NORTHWEST IOWA

CITY           SKY/WX    TMP DP  RH WIND       PRES   REMARKS
CHEROKEE       SUNNY     42  33  70 NE8       30.26F
DENISON        CLOUDY    43  36  75 N7        30.25F
ESTHERVILLE    SUNNY     39  31  72 N12       30.25S
LE MARS        SUNNY     43  34  70 N9        30.27F
ORANGE CITY    SUNNY     43  36  75 N10       30.27S
SHELDON        SUNNY     41  32  70 N9        30.25F
SIOUX CITY     SUNNY     43  33  68 N9        30.28S
SPENCER        SUNNY     43  32  65 NW8       30.26R
STORM LAKE     SUNNY     41  34  75 N10       30.25S
$$

ABBREVIATIONS USED IN REMARKS
   TC - TEMPERATURE IN CELSIUS
  WCI - WIND CHILL INDEX
   HX - HEAT INDEX
  VSB - VISIBILITY





USA.gov is the U.S. government's official web portal to all federal, state and local government web resources and services.